User: anonymous   Login
Location: Newark
(3.0500°N, 36.0167°E)
Time: 23:53:36
(UTC+00:00)
Language:

Vanguard 2 Rocket - Orbit

View from above orbital plane
View from above orbital plane
View from above satellite
View from above satellite

Ground track
Ground track

The orbit data is extracted from the following two-line orbital elements,

1    12U 59001B   19235.37757758  .00000237  00000-0  12424-3 0  9995
2    12  32.9110 317.3568 1667358 303.5538  41.6562 11.44290563488286
Epoch (UTC): 23 August 2019 09:03:42
Eccentricity: 0.1667358
inclination: 32.9110°
perigee height: 553 km
apogee height: 3327 km
right ascension of ascending node: 317.3568°
argument of perigee: 303.5538°
revolutions per day: 11.44290563
mean anomaly at epoch: 41.6562°
orbit number at epoch: 48828

The dashed part of the orbit path shows where the satellite is in the earth's shadow,  

DLR